QPF
0.00 0.00 0.00 0.00 0.00 0.00 0.00 0.00 0.00 0.00 0.00 0.00 0.00 0.00 0.00 0.00 0.00 0.00 0.00 0.00 0.00 0.00 0.00 0.00 0.00 0.00 0.00 0.00 0.00 0.00 0.00 0.00
0.00 0.00 0.00 0.00 0.00 0.00 0.00 0.00 0.00 0.00 0.00 0.00 0.00 0.00 0.00 0.00 0.00 0.00 0.00 0.00 0.00 0.00 0.00 0.00 0.00 0.00 0.00 0.00 0.00 0.00 0.00 0.00
0.00 0.00 0.00 0.00 0.00 0.00 0.00 0.00 0.00 0.00 0.00 0.00 0.00 0.00 0.00 0.00 0.00 0.00 0.00 0.00 0.00 0.00 0.00 0.00 0.00 0.00 0.00 0.00 0.00 0.00 0.00 0.00
0.00 0.00 0.00 0.00 0.00 0.00 0.00 0.00 0.00 0.00 0.00 0.00 0.00 0.00 0.00 0.00 0.00 0.00 0.00 0.00 0.00 0.00 0.00 0.00 0.00 0.00 0.00 0.00 0.00 0.00 0.00 0.00
0.00 0.00 0.00 0.00 0.00 0.00 0.00 0.00 0.00 0.00 0.00 0.00 0.00 0.00 0.00 0.00 0.00 0.00 0.00 0.00 0.00 0.00 0.00 0.00 0.00 0.00 0.00 0.00 0.00 0.00 0.00 0.00
0.00 0.00 0.00 0.00 0.00 0.00 0.00 0.00 0.00 0.00 0.00 0.00 0.00 0.00 0.00 0.00 0.00 0.00 0.00 0.00 0.00 0.00 0.00 0.00 0.00 0.00 0.00 0.00 0.00 0.00 0.00 0.00
0.00 0.00 0.00 0.00 0.00 0.00 0.00 0.00 0.00 0.00 0.00 0.01 0.00 0.00 0.00 0.00 0.00 0.00 0.00 0.00 0.00 0.00 0.00 0.00 0.00 0.00 0.00 0.00 0.00 0.00 0.00 0.00
0.00 0.00 0.00 0.00 0.00 0.00 0.00 0.00 0.00 0.02 0.07 0.09 0.04 0.01 0.00 0.00 0.00 0.00 0.00 0.00 0.00 0.00 0.00 0.00 0.00 0.00 0.00 0.00 0.00 0.00 0.00 0.00
0.00 0.03 0.01 0.00 0.00 0.01 0.05 0.03 0.01 0.04 0.10 0.14 0.08 0.02 0.00 0.00 0.00 0.00 0.00 0.00 0.00 0.00 0.00 0.00 0.00 0.00 0.00 0.00 0.00 0.00 0.00 0.00
0.05 0.09 0.06 0.02 0.01 0.04 0.02 0.03 0.08 0.09 0.08 0.07 0.04 0.01 0.00 0.00 0.00 0.00 0.00 0.00 0.00 0.00 0.00 0.00 0.00 0.00 0.00 0.00 0.00 0.00 0.00 0.00
0.03 0.10 0.07 0.06 0.02 0.00 0.01 0.05 0.04 0.03 0.01 0.00 0.00 0.00 0.00 0.00 0.00 0.00 0.00 0.00 0.00 0.00 0.00 0.00 0.00 0.00 0.00 0.00 0.00 0.00 0.00 0.00
0.04 0.07 0.07 0.03 0.01 0.01 0.02 0.01 0.00 0.00 0.00 0.00 0.00 0.00 0.00 0.00 0.00 0.00 0.00 0.00 0.00 0.00 0.00 0.00 0.00 0.00 0.00 0.00 0.00 0.00 0.00 0.00
0.08 0.10 0.11 0.03 0.00 0.00 0.00 0.00 0.00 0.00 0.00 0.00 0.00 0.00 0.00 0.00 0.00 0.00 0.00 0.00 0.00 0.00 0.00 0.00 0.00 0.00 0.00 0.00 0.00 0.00 0.00 0.00
0.03 0.02 0.00 0.00 0.00 0.00 0.00 0.00 0.00 0.00 0.00 0.00 0.00 0.00 0.00 0.00 0.00 0.00 0.00 0.00 0.00 0.00 0.00 0.00 0.00 0.00 0.00 0.00 0.00 0.00 0.00 0.00
0.00 0.00 0.00 0.00 0.00 0.00 0.00 0.00 0.00 0.00 0.00 0.00 0.00 0.00 0.00 0.00 0.00 0.00 0.00 0.00 0.00 0.00 0.00 0.00 0.00 0.00 0.00 0.00 0.00 0.00 0.00 0.00
0.00 0.00 0.00 0.00 0.00 0.00 0.00 0.00 0.00 0.00 0.00 0.00 0.00 0.00 0.00 0.00 0.00 0.00 0.00 0.00 0.00 0.00 0.00 0.00 0.00 0.00 0.00 0.00 0.00 0.00 0.01 0.00
0.00 0.00 0.00 0.00 0.00 0.00 0.00 0.00 0.00 0.00 0.00 0.00 0.00 0.00 0.00 0.00 0.00 0.00 0.00 0.00 0.00 0.00 0.00 0.00 0.00 0.00 0.00 0.00 0.00 0.00 0.00 0.01
0.00 0.00 0.00 0.00 0.00 0.00 0.00 0.00 0.00 0.00 0.00 0.00 0.00 0.00 0.00 0.00 0.00 0.00 0.00 0.00 0.00 0.00 0.00 0.00 0.00 0.00 0.00 0.00 0.00 0.00 0.00 0.01
0.00 0.00 0.00 0.00 0.00 0.00 0.00 0.00 0.00 0.00 0.00 0.00 0.00 0.00 0.00 0.00 0.00 0.00 0.00 0.00 0.00 0.00 0.00 0.00 0.00 0.00 0.00 0.00 0.00 0.00 0.00 0.00
0.00 0.00 0.00 0.00 0.00 0.00 0.00 0.00 0.00 0.00 0.00 0.00 0.00 0.00 0.00 0.00 0.00 0.00 0.00 0.00 0.00 0.00 0.00 0.00 0.00 0.00 0.00 0.00 0.00 0.00 0.00 0.01
MSLP
1020.05 1020.23 1020.41 1020.77 1021.10 1021.22 1021.43 1021.63 1021.87 1022.03 1022.18 1022.49 1022.68 1022.85 1022.67 1022.90 1022.99 1023.03 1023.11 1023.27 1023.21 1023.14 1023.15 1023.13 1023.14 1023.03 1022.95 1022.85 1022.75 1022.52 1021.99 1021.94
1020.20 1020.34 1020.60 1020.87 1021.24 1021.57 1021.81 1022.01 1022.17 1022.42 1022.56 1022.75 1022.81 1023.11 1023.08 1023.08 1023.03 1023.11 1023.25 1023.38 1023.28 1023.27 1023.22 1023.21 1023.02 1023.13 1023.06 1022.92 1022.75 1022.56 1022.23 1021.90
1020.59 1020.60 1020.84 1021.34 1021.54 1021.82 1022.07 1022.29 1022.34 1022.57 1022.59 1023.02 1023.08 1023.00 1023.02 1023.02 1023.32 1023.30 1023.27 1023.17 1023.28 1023.24 1023.32 1023.30 1023.19 1023.15 1023.12 1023.04 1022.81 1022.53 1022.49 1022.23
1020.70 1021.11 1021.32 1021.53 1021.61 1022.07 1022.38 1022.42 1022.39 1022.65 1022.82 1022.83 1022.89 1023.06 1023.12 1023.25 1023.49 1023.49 1023.48 1023.31 1023.42 1023.47 1023.52 1023.40 1023.20 1023.14 1023.07 1023.04 1022.83 1022.82 1022.51 1022.41
1020.91 1021.34 1021.57 1021.96 1022.20 1022.61 1022.66 1022.71 1022.82 1022.87 1022.90 1022.97 1022.99 1023.14 1023.24 1023.18 1023.43 1023.47 1023.62 1023.66 1023.52 1023.55 1023.50 1023.47 1023.60 1023.50 1023.50 1023.45 1023.19 1022.83 1022.71 1022.51
1020.90 1021.57 1021.77 1022.51 1022.70 1022.87 1022.90 1022.85 1023.09 1023.13 1022.93 1023.13 1023.23 1023.20 1023.49 1023.55 1023.59 1023.84 1024.00 1023.87 1023.78 1023.71 1023.80 1023.91 1023.91 1023.91 1023.83 1023.63 1023.40 1023.06 1022.85 1022.62
1021.21 1021.59 1022.14 1022.53 1022.96 1023.05 1023.22 1023.20 1023.33 1023.35 1023.40 1023.53 1023.51 1023.58 1023.78 1023.98 1024.06 1024.06 1024.17 1024.07 1023.94 1023.84 1023.97 1023.99 1023.93 1023.89 1023.79 1023.57 1023.41 1023.21 1023.02 1022.72
1021.48 1021.93 1022.43 1022.66 1022.92 1023.15 1023.36 1023.46 1023.42 1023.60 1023.91 1023.97 1023.86 1023.76 1023.92 1024.12 1024.20 1024.33 1024.47 1024.41 1024.26 1024.25 1024.20 1024.11 1023.93 1023.88 1023.61 1023.49 1023.37 1023.15 1023.00 1022.85
1021.77 1022.41 1022.65 1022.84 1023.51 1023.89 1024.29 1024.37 1023.65 1023.43 1023.66 1024.16 1024.16 1024.13 1024.22 1024.27 1024.40 1024.53 1024.73 1024.77 1024.70 1024.56 1024.37 1024.24 1023.99 1023.84 1023.57 1023.35 1023.19 1023.09 1022.96 1022.89
1022.10 1022.42 1023.16 1023.38 1023.48 1024.44 1024.35 1024.40 1024.60 1024.75 1024.58 1024.41 1024.44 1024.28 1024.34 1024.51 1024.55 1024.86 1025.13 1024.93 1024.74 1024.58 1024.41 1024.16 1024.00 1023.84 1023.51 1023.16 1023.00 1022.97 1023.05 1023.02
1022.12 1022.79 1023.25 1023.42 1023.19 1023.72 1024.60 1024.76 1024.92 1024.92 1024.94 1024.50 1024.67 1024.79 1024.95 1024.85 1025.05 1025.31 1025.22 1025.04 1025.11 1025.01 1024.57 1024.46 1024.07 1023.85 1023.56 1023.15 1022.93 1022.72 1023.00 1022.90
1022.33 1022.82 1023.28 1023.55 1022.83 1024.33 1024.64 1025.07 1025.25 1025.24 1024.99 1024.94 1025.16 1025.18 1025.17 1025.17 1025.25 1025.41 1025.37 1025.27 1025.29 1025.19 1024.90 1024.54 1024.40 1024.24 1023.75 1023.15 1022.89 1022.56 1022.78 1022.74
1022.10 1022.44 1022.97 1023.42 1023.84 1024.63 1024.57 1024.94 1025.40 1025.39 1025.19 1025.33 1025.51 1025.43 1025.39 1025.24 1025.28 1025.47 1025.55 1025.44 1025.52 1025.40 1025.06 1024.76 1024.26 1024.40 1023.83 1023.21 1022.77 1022.61 1022.76 1022.61
1021.76 1022.00 1022.45 1022.98 1023.26 1023.64 1023.96 1024.57 1025.15 1025.24 1025.39 1025.96 1025.63 1025.48 1025.44 1025.54 1025.59 1025.61 1025.66 1025.43 1025.41 1025.27 1025.08 1024.67 1024.45 1024.57 1024.11 1023.43 1022.54 1022.53 1022.82 1022.63
1021.79 1021.99 1022.33 1022.94 1023.47 1023.85 1024.49 1024.98 1025.28 1025.35 1025.67 1025.79 1025.84 1025.70 1025.64 1025.62 1025.65 1025.63 1025.62 1025.49 1025.29 1025.21 1025.11 1025.02 1024.61 1024.62 1024.72 1024.44 1023.39 1022.72 1023.10 1022.78
1022.45 1022.77 1023.03 1023.32 1023.65 1024.05 1024.32 1024.31 1024.54 1025.14 1025.45 1025.61 1025.59 1025.76 1025.78 1025.81 1025.84 1025.81 1025.64 1025.45 1025.24 1025.11 1025.01 1025.04 1024.91 1024.53 1024.59 1024.62 1024.67 1024.39 1024.03 1023.15
1022.84 1023.16 1023.40 1023.60 1023.84 1023.76 1024.27 1024.46 1024.88 1025.21 1025.50 1025.63 1025.69 1025.74 1025.88 1025.88 1025.83 1025.68 1025.45 1025.28 1025.21 1025.13 1025.12 1025.10 1025.07 1025.05 1024.77 1024.58 1024.56 1024.48 1024.25 1024.03
1022.76 1022.59 1023.14 1023.52 1023.67 1024.00 1024.41 1024.70 1025.01 1025.22 1025.45 1025.46 1025.53 1025.64 1025.66 1025.69 1025.62 1025.49 1025.39 1025.24 1025.09 1025.00 1024.99 1024.91 1024.82 1024.87 1024.80 1024.68 1024.46 1024.44 1024.29 1024.18
1022.68 1022.80 1023.24 1023.65 1023.89 1024.29 1024.63 1024.85 1025.12 1025.25 1025.32 1025.36 1025.42 1025.38 1025.33 1025.19 1025.31 1025.16 1024.99 1025.00 1025.00 1025.03 1025.04 1025.06 1025.13 1025.07 1024.91 1024.76 1024.68 1024.57 1024.52 1024.49
1023.00 1023.23 1023.58 1023.86 1024.13 1024.47 1024.73 1024.92 1025.12 1025.29 1025.45 1025.48 1025.44 1025.40 1025.23 1025.16 1025.18 1025.14 1024.97 1024.94 1024.86 1024.83 1024.77 1024.73 1024.69 1024.81 1024.63 1024.44 1024.42 1024.25 1024.24 1024.08
Thickness
5663 5663 5664 5662 5660 5659 5659 5657 5655 5652 5651 5647 5645 5643 5642 5638 5636 5633 5630 5626 5625 5624 5622 5621 5618 5618 5617 5617 5616 5616 5617 5617
5662 5662 5661 5660 5656 5655 5653 5651 5649 5646 5644 5642 5640 5636 5634 5633 5631 5628 5624 5620 5619 5617 5616 5615 5615 5612 5611 5611 5611 5609 5608 5610
5657 5659 5657 5653 5652 5650 5648 5646 5644 5642 5641 5635 5634 5633 5631 5628 5624 5622 5620 5618 5615 5613 5610 5609 5608 5606 5605 5603 5603 5602 5599 5600
5655 5652 5650 5649 5649 5645 5641 5640 5639 5636 5634 5632 5631 5628 5626 5622 5617 5615 5613 5613 5610 5607 5604 5603 5601 5597 5596 5595 5594 5593 5593 5592
5651 5648 5647 5642 5640 5637 5634 5633 5632 5631 5629 5627 5626 5623 5620 5617 5612 5608 5605 5604 5601 5598 5596 5594 5591 5589 5587 5585 5586 5587 5585 5585
5649 5644 5644 5637 5632 5630 5629 5628 5626 5623 5624 5622 5618 5617 5612 5609 5605 5601 5596 5595 5593 5590 5587 5585 5582 5580 5578 5578 5578 5579 5579 5579
5646 5642 5636 5632 5629 5627 5624 5622 5618 5616 5615 5612 5611 5609 5605 5600 5597 5593 5589 5586 5584 5582 5579 5576 5575 5573 5572 5573 5571 5571 5571 5572
5640 5635 5630 5627 5624 5621 5617 5614 5611 5609 5607 5605 5603 5601 5598 5593 5589 5584 5579 5576 5574 5571 5569 5567 5566 5564 5564 5564 5563 5563 5562 5562
5634 5628 5625 5623 5616 5610 5603 5599 5606 5610 5608 5600 5596 5593 5589 5584 5579 5574 5569 5565 5563 5560 5559 5558 5557 5555 5556 5556 5555 5554 5552 5551
5630 5625 5619 5613 5612 5597 5592 5592 5591 5588 5589 5589 5586 5585 5579 5573 5568 5562 5556 5555 5553 5551 5550 5550 5548 5547 5547 5546 5544 5542 5539 5537
5627 5619 5614 5608 5610 5604 5585 5588 5583 5582 5579 5581 5575 5570 5564 5559 5554 5548 5546 5545 5542 5539 5539 5537 5537 5535 5533 5532 5529 5527 5522 5519
5622 5616 5605 5600 5595 5585 5580 5575 5573 5570 5569 5565 5559 5553 5550 5546 5542 5538 5535 5533 5529 5526 5525 5523 5520 5516 5516 5517 5514 5512 5506 5502
5618 5614 5605 5597 5589 5576 5573 5568 5559 5555 5553 5549 5544 5542 5539 5537 5532 5526 5522 5518 5514 5511 5509 5506 5505 5498 5497 5498 5495 5491 5484 5481
5616 5612 5606 5596 5587 5578 5570 5561 5554 5551 5548 5538 5537 5532 5527 5521 5516 5512 5507 5504 5499 5495 5491 5490 5486 5478 5476 5474 5477 5469 5460 5456
5607 5603 5598 5589 5579 5569 5557 5548 5541 5538 5530 5525 5520 5518 5515 5512 5508 5503 5498 5493 5490 5484 5478 5472 5467 5458 5449 5443 5445 5444 5429 5426
5594 5590 5585 5578 5570 5561 5555 5552 5546 5534 5527 5521 5517 5512 5507 5502 5496 5490 5485 5480 5474 5466 5458 5449 5442 5436 5426 5416 5405 5397 5388 5390
5584 5578 5572 5566 5560 5557 5549 5544 5536 5527 5520 5514 5509 5503 5496 5489 5482 5477 5471 5463 5455 5447 5436 5425 5416 5407 5398 5391 5382 5372 5362 5348
5578 5576 5567 5559 5555 5547 5539 5531 5524 5517 5511 5506 5500 5492 5484 5477 5470 5462 5453 5445 5436 5427 5416 5406 5397 5386 5375 5364 5353 5339 5328 5314
5572 5568 5560 5551 5544 5536 5528 5522 5515 5509 5502 5496 5488 5481 5474 5467 5457 5448 5439 5429 5419 5408 5396 5384 5370 5356 5343 5331 5316 5305 5298 5289
5562 5556 5548 5541 5533 5525 5518 5511 5505 5497 5490 5482 5476 5468 5460 5451 5443 5433 5423 5411 5400 5388 5375 5360 5345 5328 5317 5306 5294 5287 5280 5277